Regional Weather Roundup
Issued by NWS

Home | Current Version | Previous Version | Graphics & Text | Print | Product List | Glossary Off
Versions: 1 2 3 4 5 6 7 8 9 10 11 12 13 14 15 16 17 18 19 20 21 22 23 24 25 26 27 28 29 30 31 32 33 34 35 36 37 38 39 40 41 42 43 44 45 46 47 48 49 50

000
ASUS43 KTOP 310659
RWRKS

WEATHER ROUNDUP FOR KANSAS
NATIONAL WEATHER SERVICE GOODLAND KS
200 AM CDT TUE MAY 31 2016

NOTE:  "FAIR" INDICATES FEW OR NO CLOUDS BELOW 12,000 FEET WITH NO
SIGNIFICANT WEATHER AND/OR OBSTRUCTIONS TO VISIBILITY.

KSZ001>006-013>018-027>032-041>047-310800-
NORTHWEST KANSAS

CITY           SKY/WX    TMP DP  RH WIND       PRES   REMARKS
GOODLAND       CLOUDY    52  49  89 W5        29.94S
HAYS           CLOUDY    63  52  67 S12G20    29.88F
HILL CITY      CLOUDY    60  57  89 NE8       29.92R
RUSSELL        CLOUDY    59  57  93 S9        29.92F
$$

KSZ061>065-074>080-084>089-310800-
SOUTHWEST KANSAS

CITY           SKY/WX    TMP DP  RH WIND       PRES   REMARKS
DODGE CITY     LGT RAIN  54  52  93 NE24G35   29.96F
ELKHART          N/A     63  61  94 NE6         N/A
GARDEN CITY    LGT RAIN  58  55  90 VRB3      29.92F
GREAT BEND     CLOUDY    63  54  72 CALM      29.98R THUNDER
LIBERAL        CLOUDY    68  57  68 NE13      29.96R
$$

KSZ066>073-081>083-090>101-310800-
SOUTHEAST KANSAS

CITY           SKY/WX    TMP DP  RH WIND       PRES   REMARKS
CHANUTE        MOCLDY    64  62  93 SE5       29.93F
COFFEYVILLE    CLEAR     61  60  97 CALM      29.93F
HUTCHINSON     CLOUDY    65  62  90 SE8       29.94F
MEDICINE LODGE   N/A     66  62  87 SE7       29.91S
NEWTON         CLOUDY    63  55  77 S5        29.97S
PARSONS        CLEAR     62  60  93 CALM      29.94F
WICHITA INTL   CLOUDY    66  62  87 S6        29.94R
WICHITA JABRA  CLOUDY    63  61  93 S6        29.94S
WINFIELD       CLOUDY    64  62  93 E6        29.94S
$$

KSZ007>012-019>026-033>040-048>060-102>105-310800-
NORTHEAST KANSAS

CITY           SKY/WX    TMP DP  RH WIND       PRES   REMARKS
CONCORDIA      LGT RAIN  59  57  93 E6        29.95F
EMPORIA        CLOUDY    61  60  97 SW3       29.95F
LAWRENCE       PTCLDY    62  61  96 SE5       29.94F
MANHATTAN      CLOUDY    66  61  84 S7        29.93F
OLATHE IND     CLEAR     62  61  96 S5        29.96F
OLATHE EXE     CLEAR     61  59  93 SW5       29.95F
SALINA         CLOUDY    68  58  70 NW14G23   29.99R THUNDER
TOPEKA BILLARD CLOUDY    65  61  87 CALM      29.94F
TOPEKA FORBES  PTCLDY    64  61  90 S6        29.93F
$$




USA.gov is the U.S. government's official web portal to all federal, state and local government web resources and services.